Location: *
(41.0833°N, 73.4167°W)
Time: 17:19:20
(UTC+00:00)

Cosmos 2297 - Pass Details

Date: 22 October 2019
Orbit: 834 x 860 km, 71.0° (Epoch: 20 November)

Event Time Altitude Azimuth Distance (km) Brightness Sun altitude
Rises 10:24:38 0° 326° (NW) 3,444 6.5 -9.8°
Reaches altitude 10° 10:27:21 10° 316° (NW) 2,502 5.7 -9.2°
Maximum altitude 10:32:19 31° 257° (WSW) 1,467 4.5 -8.3°
Drops below altitude 10° 10:37:14 10° 197° (SSW) 2,480 6.1 -7.4°
Sets 10:39:56 0° 187° (S) 3,408 6.9 -6.9°
